カタログに戻る

GLOBALSTAR M062

運用中通信LEO
NORAD 26082·PAYLOAD·🇺🇸 United States

打ち上げ Feb 8, 2000 から Cape Canaveral Space Force Station

Loading…

次のパス (今後24時間)

TLE

最新Source: Space-Track

元期: Sep 13, 2026, 20:48 UTC

1 26082U 00008B   26256.86679001 -.00000083  00000-0  10989-3 0  9996
2 26082  51.9834 201.6083 0007571   5.7152  27.8002 12.43500635553067

AllMySatでGLOBALSTAR M062をリアルタイム追跡

Download on the App Store